TimeEDT,TemperatureF,Dew PointF,Humidity,Sea Level PressureIn,VisibilityMPH,Wind Direction,Wind SpeedMPH,Gust SpeedMPH,PrecipitationIn,Events,Conditions,WindDirDegrees,DateUTC
12:53 AM,62.1,53.1,72,30.16,10.0,ENE,4.6,-,N/A,,Overcast,70,2013-09-28 04:53:00
1:53 AM,59.0,52.0,78,30.16,10.0,Calm,Calm,-,N/A,,Clear,0,2013-09-28 05:53:00
2:53 AM,59.0,54.0,83,30.16,10.0,Calm,Calm,-,N/A,,Overcast,0,2013-09-28 06:53:00
3:53 AM,57.9,53.1,84,30.16,10.0,Calm,Calm,-,N/A,,Clear,0,2013-09-28 07:53:00
4:53 AM,57.0,53.1,87,30.16,10.0,North,3.5,-,N/A,,Overcast,360,2013-09-28 08:53:00
5:53 AM,57.9,55.0,90,30.17,10.0,Calm,Calm,-,N/A,,Overcast,0,2013-09-28 09:53:00
6:53 AM,57.9,54.0,87,30.19,10.0,Calm,Calm,-,N/A,,Overcast,0,2013-09-28 10:53:00
7:53 AM,57.9,55.0,90,30.21,10.0,ENE,3.5,-,N/A,,Overcast,60,2013-09-28 11:53:00
8:53 AM,59.0,54.0,83,30.22,10.0,NE,4.6,-,N/A,,Mostly Cloudy,50,2013-09-28 12:53:00
9:53 AM,62.1,53.1,72,30.24,10.0,North,3.5,-,N/A,,Mostly Cloudy,360,2013-09-28 13:53:00
10:53 AM,64.9,53.1,65,30.24,10.0,Variable,4.6,-,N/A,,Scattered Clouds,0,2013-09-28 14:53:00
11:53 AM,66.0,52.0,60,30.23,10.0,East,6.9,-,N/A,,Overcast,100,2013-09-28 15:53:00
12:53 PM,68.0,51.1,55,30.22,10.0,NE,5.8,-,N/A,,Overcast,50,2013-09-28 16:53:00
1:53 PM,68.0,51.1,55,30.19,10.0,Variable,5.8,-,N/A,,Mostly Cloudy,0,2013-09-28 17:53:00
2:53 PM,69.1,52.0,54,30.17,10.0,Variable,3.5,-,N/A,,Overcast,0,2013-09-28 18:53:00
3:53 PM,71.1,53.1,53,30.15,10.0,Variable,6.9,-,N/A,,Mostly Cloudy,0,2013-09-28 19:53:00
4:53 PM,70.0,51.1,51,30.15,10.0,NE,5.8,-,N/A,,Partly Cloudy,40,2013-09-28 20:53:00
5:53 PM,68.0,51.1,55,30.15,10.0,ENE,9.2,-,N/A,,Scattered Clouds,70,2013-09-28 21:53:00
6:53 PM,64.9,52.0,63,30.15,10.0,ENE,4.6,-,N/A,,Clear,70,2013-09-28 22:53:00
7:53 PM,61.0,52.0,72,30.16,10.0,Calm,Calm,-,N/A,,Clear,0,2013-09-28 23:53:00
8:53 PM,60.1,51.1,72,30.17,10.0,ENE,4.6,-,N/A,,Clear,60,2013-09-29 00:53:00
9:53 PM,57.0,54.0,89,30.18,10.0,Calm,Calm,-,N/A,,Partly Cloudy,0,2013-09-29 01:53:00
10:53 PM,55.0,52.0,89,30.17,10.0,North,3.5,-,N/A,,Mostly Cloudy,360,2013-09-29 02:53:00
11:53 PM,55.9,51.1,84,30.17,10.0,Calm,Calm,-,N/A,,Partly Cloudy,0,2013-09-29 03:53:00